Regional Weather Roundup
Issued by NWS

Home | Current Version | Previous Version | Graphics & Text | Print | Product List | Glossary On
Versions: 1 2 3 4 5 6 7 8 9 10 11 12 13 14 15 16 17 18 19 20 21 22 23 24 25 26 27 28 29 30 31 32 33 34 35 36 37 38 39 40 41 42 43 44 45 46 47 48 49 50
000
ASUS43 KMKX 180024
RWRWI

WISCONSIN REGIONAL WEATHER ROUNDUP
NATIONAL WEATHER SERVICE MILWAUKEE/SULLIVAN WI
600 PM CST WED DEC 17 2014

NOTE: "FAIR" INDICATES FEW OR NO CLOUDS BELOW 12,000 FEET WITH NO
SIGNIFICANT WEATHER AND/OR OBSTRUCTIONS TO VISIBILITY.

WIZ001-002-006>008-014>016-023>028-180100-
NORTHWEST WISCONSIN

CITY           SKY/WX    TMP DP  RH WIND       PRES   REMARKS
SUPERIOR ARPT  MOCLDY    16  13  88 W3        30.33S
6HR MIN TEMP:  15; 6HR MAX TEMP:  22;

ASHLAND        FLURRIES  23  19  85 NW6       30.31R WCI  16
6HR MIN TEMP:  22; 6HR MAX TEMP:  24; 6HR PCP: TRACE;

HAYWARD        CLOUDY    18  12  77 N3        30.28S
6HR MIN TEMP:  18; 6HR MAX TEMP:  20; 6HR PCP: TRACE;

SIREN          CLEAR     13  10  87 CALM      30.30S
6HR MIN TEMP:  12; 6HR MAX TEMP:  18;

CUMBERLAND     CLEAR     14   9  79 N3        30.27S
RICE LAKE      CLEAR     17  11  77 NW3       30.30R
6HR MIN TEMP:  17; 6HR MAX TEMP:  19;

CHETEK         MOCLDY    17  10  77 CALM      30.29R
6HR MIN TEMP:  16; 6HR MAX TEMP:  19;

LADYSMITH      CLOUDY    20  14  77 N9        30.27S WCI   9
6HR MIN TEMP:  19; 6HR MAX TEMP:  22;

EAU CLAIRE     PTCLDY    16   8  71 W3        30.29S
6HR MIN TEMP:  16; 6HR MAX TEMP:  19;

MENOMONIE      PTCLDY    17  10  74 W5        30.30S WCI  10
6HR MIN TEMP:  17; 6HR MAX TEMP:  20;

NEW RICHMOND   PTCLDY    15  11  84 N3        30.30S
6HR MIN TEMP:  14; 6HR MAX TEMP:  17;

OSCEOLA        PTCLDY    16  10  80 CALM      30.34S
6HR MIN TEMP:  16; 6HR MAX TEMP:  19;

$$

WIZ003>005-009-010-017-018-180100-
NORTH CENTRAL WISCONSIN

CITY           SKY/WX    TMP DP  RH WIND       PRES   REMARKS
MANITOWISH WTR CLOUDY    21  19  94 N8        30.20S WCI  11
6HR MIN TEMP:  18; 6HR MAX TEMP:  21;

ARBOR VITAE    CLOUDY    22  19  90 N12       30.20R WCI  10
6HR MIN TEMP:  20; 6HR MAX TEMP:  22;

WOODRUFF       CLOUDY    22  19  90 N12       30.20R WCI  10
6HR MIN TEMP:  20; 6HR MAX TEMP:  22;

RHINELANDER    CLOUDY    20  17  88 NW6       30.19R WCI  12
6HR MIN TEMP:  19; 6HR MAX TEMP:  20; 6HR PCP: TRACE;

EAGLE RIVER    CLOUDY    21  17  85 N9        30.18R WCI  11
6HR MIN TEMP:  19; 6HR MAX TEMP:  23;

LAND O LAKES   CLOUDY    22  20  94 N8        30.19R WCI  12
6HR MIN TEMP:  22; 6HR MAX TEMP:  24;

PHILLIPS       CLOUDY    19  15  86 NW6       30.23R WCI  10
6HR MIN TEMP:  17; 6HR MAX TEMP:  19;

TOMAHAWK       CLOUDY    20  16  84 CALM      30.21S
6HR MIN TEMP:  20; 6HR MAX TEMP:  22;

MEDFORD        CLOUDY    18  12  77 NW6       30.21S WCI  10
6HR MIN TEMP:  16; 6HR MAX TEMP:  19;

MERRILL        CLOUDY    21  15  78 NW7       30.21S WCI  13
6HR MIN TEMP:  20; 6HR MAX TEMP:  23;

$$

WIZ029-030-035-036-043>047-180100-
CENTRAL WISCONSIN

CITY           SKY/WX    TMP DP  RH WIND       PRES   REMARKS
WAUSAU         CLOUDY    22  14  71 NW8       30.20S WCI  12
6HR MIN TEMP:  20; 6HR MAX TEMP:  22;

MOSINEE        CLOUDY    19  16  86 NW7       30.22S WCI  10
MARSHFIELD     CLOUDY    18  11  74 NW9       30.23S WCI   7
6HR MIN TEMP:  17; 6HR MAX TEMP:  21; 6HR PCP: TRACE;

STEVENS POINT  MOCLDY    17  10  74 W6        30.24R WCI   9
6HR MIN TEMP:  17; 6HR MAX TEMP:  21;

WAUPACA        MOCLDY    23  13  67 W6        30.24R WCI  16
6HR MIN TEMP:  23; 6HR MAX TEMP:  28;

WAUTOMA        CLEAR     20  13  74 NW8       30.25S WCI  10
6HR MIN TEMP:  20; 6HR MAX TEMP:  24; 6HR PCP: TRACE;

WISC RAPIDS    PTCLDY    17  10  74 NW7       30.26S WCI   8
6HR MIN TEMP:  17; 6HR MAX TEMP:  22;

CAMP DOUGLAS   CLOUDY    19  18  93 NW7       30.27R WCI  10
                                      6HR PCP: TRACE;

$$

WIZ011>013-019>022-031-037>040-048>050-180100-
NORTHEAST WISCONSIN

CITY           SKY/WX    TMP DP  RH WIND       PRES   REMARKS
ANTIGO         CLOUDY    21  17  86 NW10      30.18R WCI   9
6HR MIN TEMP:  19; 6HR MAX TEMP:  22;

SHAWANO        CLOUDY    28  19  70 NW6       30.22R WCI  21
6HR MIN TEMP:  26; 6HR MAX TEMP:  28;

OCONTO         CLOUDY    26  19  73 W6        30.19S WCI  20
6HR MIN TEMP:  24; 6HR MAX TEMP:  27;

STURGEON BAY   CLOUDY    28  18  64 NW13      30.18R WCI  18
6HR MIN TEMP:  23; 6HR MAX TEMP:  28;

GREEN BAY      CLOUDY    26  17  68 W10       30.21S WCI  16
6HR MIN TEMP:  24; 6HR MAX TEMP:  27; 6HR PCP: TRACE;

MANITOWOC      CLOUDY    26  17  68 NW13      30.20R WCI  15
6HR MIN TEMP:  26; 6HR MAX TEMP:  30; 6HR PCP: TRACE;

APPLETON       MOCLDY    21  14  73 W10       30.22R WCI  10
CLINTONVILLE   CLOUDY    25  16  68 NW8       30.22S WCI  16
OSHKOSH        CLEAR     22  14  71 NW8       30.23R WCI  12
6HR MIN TEMP:  22; 6HR MAX TEMP:  26; 6HR PCP: TRACE;

$$

WIZ032>034-041-042-053>061-180100-
SOUTHWEST WISCONSIN

CITY           SKY/WX    TMP DP  RH WIND       PRES   REMARKS
LA CROSSE      CLOUDY    21  12  68 N9        30.31R WCI  11
6HR MIN TEMP:  21; 6HR MAX TEMP:  25;

SPARTA         CLOUDY    19  13  76 NW3       30.30R
6HR MIN TEMP:  19; 6HR MAX TEMP:  22;

VIROQUA        CLOUDY    19  14  82 N8        30.25R WCI   8
6HR MIN TEMP:  19; 6HR MAX TEMP:  23;

BOSCOBEL       MOCLDY    19  13  77 CALM      30.29R
6HR MIN TEMP:  19; 6HR MAX TEMP:  27;

PRAIRIE DU CHI CLEAR     22  15  74 NW5       30.30R WCI  15
6HR MIN TEMP:  21; 6HR MAX TEMP:  25;

PLATTEVILLE    CLEAR     21  16  79 CALM      30.26S
6HR MIN TEMP:  21; 6HR MAX TEMP:  24;

$$

WIZ056-057-062-063-064-067-068-180100-
SOUTH CENTRAL WISCONSIN

CITY           SKY/WX    TMP DP  RH WIND       PRES   REMARKS
REEDSBURG      CLOUDY    20  14  76 N7        30.26S WCI  11
6HR MIN TEMP:  20; 6HR MAX TEMP:  23;

BARABOO/DELLS  CLOUDY    20  13  75 N9        30.26R WCI   9
6HR MIN TEMP:  20; 6HR MAX TEMP:  24;

LONE ROCK      CLEAR     25  13  60 NW6       30.28R WCI  18
6HR MIN TEMP:  24; 6HR MAX TEMP:  27;

MINERAL POINT  PTCLDY    21  18  86 CALM      30.25R
MADISON        CLOUDY    22  14  71 NW8       30.25R WCI  12
6HR MIN TEMP:  21; 6HR MAX TEMP:  25; 6HR PCP: TRACE;

MIDDLETON      CLOUDY    24  16  73 NW7       30.25S WCI  16
6HR MIN TEMP:  23; 6HR MAX TEMP:  26;

WATERTOWN      CLOUDY    22  16  76 NW10      30.24R WCI  11
6HR MIN TEMP:  21; 6HR MAX TEMP:  25;

MONROE         CLOUDY    23  18  80 NW5       30.24S WCI  17
JANESVILLE     CLOUDY    25  18  74 W8        30.25S WCI  16
$$

WIZ051-052-058>065-066-070>072-180100-
SOUTHEAST WISCONSIN

CITY           SKY/WX    TMP DP  RH WIND       PRES   REMARKS
MILWAUKEE      PTCLDY    24  13  62 NW13      30.23R WCI  12
6HR MIN TEMP:  24; 6HR MAX TEMP:  27;

WAUKESHA       MOCLDY    19  12  73 NW14      30.24R WCI   6
MILWAUKEE/TIMM PTCLDY    21  14  73 NW12      30.24R WCI   9
RACINE         MOCLDY    24  15  68 NW7       30.25R WCI  16
6HR MIN TEMP:  24; 6HR MAX TEMP:  27;

BURLINGTON     MOCLDY    22  16  77 NW12      30.24R WCI  11
6HR MIN TEMP:  20; 6HR MAX TEMP:  24;

KENOSHA        MOCLDY    24  16  71 NW7       30.24R WCI  16
6HR MIN TEMP:  24; 6HR MAX TEMP:  27;

FOND DU LAC    CLEAR     21  13  71 NW8       30.24R WCI  11
6HR MIN TEMP:  21; 6HR MAX TEMP:  25; 6HR PCP: TRACE;

SHEBOYGAN      MOCLDY    23  15  71 W13       30.22R WCI  11
6HR MIN TEMP:  23; 6HR MAX TEMP:  26;

WEST BEND      CLEAR     23  16  74 NW8       30.22S WCI  14
JUNEAU         CLEAR     20  14  78 NW6       30.24S WCI  12
6HR MIN TEMP:  20; 6HR MAX TEMP:  24;

$$

LSZ147-162-180100-
LAKE SUPERIOR

STATION/POSITION TIME  TEMP    WIND        PRES    WAVE
                       AIR SEA DIR/SP/G            HT/PER
                 (UTC) (F)     (DEG/KT/KT) (MB)    (FT/S)
DEVILS ISLAND    2300   26      20/  6/  8 1027.3R
PORT WING        2300   22     200/  5/  7 1026.8R
SAXON HARBOR     2300   26     350/ 10/ 12 1025.4R
$$

LMZ867-665-643>646-180100-
LAKE MICHIGAN

STATION/POSITION TIME  TEMP    WIND        PRES    WAVE


USA.gov is the U.S. government's official web portal to all federal, state and local government web resources and services.